Theta_e
285 280 277 275 279 280 280 280 281 279 278 278 278 277 276 275 275 276 278 280 280 278 275 274 275 274 275 275 275 275 274 274 273 273 273 274 274 274 274 274 273 272 272 275 274 274 274 274 275 275 274 274 274 273 273 272 273 272 271 271 270 271 271 271 271 272 271 270 270 271 271 271 271 273 275 276 276 276 276 277 277 277 276 276 276 278
284 281 276 281 281 282 281 279 279 279 278 279 277 275 275 274 274 278 277 278 279 278 275 274 274 274 275 275 275 274 274 273 273 273 273 274 274 274 274 273 273 273 274 274 272 272 272 273 274 274 274 276 272 273 272 271 272 271 271 270 270 270 270 270 271 271 270 270 270 270 270 270 271 271 272 274 275 275 275 276 276 276 276 275 275 277
280 278 281 281 282 281 279 279 278 278 278 276 276 274 272 274 275 277 277 279 280 279 276 273 274 275 275 275 274 274 274 274 274 274 274 274 274 274 273 272 273 272 272 271 271 271 271 273 274 272 273 272 272 272 271 271 272 271 271 270 270 270 270 270 272 272 270 270 271 271 270 270 270 273 274 274 275 275 274 275 275 276 275 275 275 275
277 279 282 282 280 281 280 278 278 277 277 276 274 273 272 275 274 271 278 278 280 277 275 273 273 274 273 273 273 274 274 274 274 274 275 275 275 274 273 273 273 271 272 271 271 270 270 271 271 272 272 272 272 271 271 271 271 271 271 270 270 270 270 270 271 272 271 271 271 271 271 271 271 271 274 274 274 273 273 273 274 275 275 275 274 275
279 282 282 280 280 281 281 277 277 275 275 275 276 273 272 274 276 275 276 277 278 277 276 272 272 272 271 273 274 275 274 275 275 275 275 275 275 274 274 273 272 271 271 271 270 270 270 270 271 271 272 271 271 270 270 270 270 271 270 270 270 270 270 270 271 270 270 271 270 270 270 271 271 272 272 271 271 272 273 273 272 273 274 274 274 274
280 283 283 280 278 278 278 277 278 276 274 274 275 277 277 276 276 276 276 276 274 271 276 276 269 267 271 272 273 273 273 274 274 274 275 275 274 273 273 272 272 274 272 271 271 270 271 271 271 271 271 270 270 270 270 270 270 270 270 270 270 270 270 270 270 270 270 269 269 268 268 267 267 267 268 268 268 269 270 270 271 272 273 273 273 273
280 282 281 281 278 277 276 277 278 277 273 272 275 276 276 276 275 275 275 275 267 268 275 277 269 266 270 269 272 273 272 273 274 274 275 274 274 273 273 273 272 271 271 270 270 270 270 271 271 271 270 270 270 270 270 270 270 270 270 270 270 269 270 270 269 269 270 268 268 268 268 267 267 266 267 269 269 269 270 271 270 270 271 272 272 272
282 281 279 278 277 277 276 274 277 276 273 274 277 278 277 276 275 276 275 274 272 275 277 275 272 265 267 272 271 272 271 272 273 274 274 274 274 273 273 272 272 271 271 271 270 270 270 271 271 271 270 269 270 270 270 270 270 269 269 269 269 270 270 270 270 269 269 268 268 268 268 268 268 267 267 268 268 270 270 269 269 270 270 271 271 271
282 281 280 278 277 277 277 278 279 278 275 277 279 279 278 277 277 276 275 273 273 273 269 271 274 268 264 270 271 271 270 271 272 273 274 275 274 273 273 273 272 272 271 271 271 270 270 271 271 271 270 270 270 270 270 270 269 269 269 269 270 269 269 269 269 269 268 269 268 268 268 267 268 268 268 269 269 269 269 268 269 269 270 270 271 271
281 283 280 280 277 277 279 277 278 278 277 278 279 279 278 277 277 276 273 273 269 270 263 269 272 266 268 271 270 271 270 270 272 274 275 275 275 274 273 273 272 272 271 271 271 271 270 271 271 271 270 270 270 270 272 270 269 269 269 269 270 269 269 269 268 269 268 268 268 267 267 267 267 267 267 268 267 268 268 268 269 269 269 269 270 270
282 285 283 280 279 279 279 278 278 278 279 280 277 276 276 273 272 273 272 268 265 261 265 271 272 269 265 269 271 269 271 272 273 273 273 274 274 273 273 273 273 272 271 271 271 271 271 271 271 270 270 270 270 270 270 269 269 269 269 269 268 269 269 269 268 268 268 268 268 268 267 267 266 267 267 266 267 267 268 267 268 268 268 269 269 270
282 282 283 281 284 282 280 279 280 279 279 278 274 273 273 273 272 270 266 265 262 262 265 270 271 270 262 268 270 273 271 270 273 273 273 273 274 274 274 273 272 272 271 271 271 270 270 270 270 270 270 269 269 270 270 269 269 269 269 269 268 268 268 268 268 268 268 268 268 268 267 267 267 267 267 266 266 267 267 267 267 268 268 268 269 269
278 280 281 280 284 282 278 277 277 278 277 277 274 274 272 264 262 264 262 263 262 264 270 270 272 268 268 273 274 273 274 274 272 275 274 274 274 274 274 273 273 272 271 271 271 270 271 270 270 270 270 269 269 269 269 269 269 269 269 268 268 268 268 267 268 267 267 267 267 267 267 267 267 267 267 267 266 267 267 267 267 267 267 267 267 268
275 277 278 280 281 282 279 275 274 273 274 275 272 268 265 264 260 262 261 262 263 269 271 270 272 269 272 273 275 276 277 276 274 274 274 274 274 274 274 273 272 272 271 271 271 270 270 270 270 270 270 269 269 269 269 269 269 268 268 268 268 268 267 267 267 267 267 267 267 267 267 267 267 267 267 267 267 267 268 268 267 267 267 267 267 267
270 271 277 279 278 280 276 275 276 276 275 273 275 272 266 262 264 262 259 263 265 268 271 272 266 263 267 275 274 274 273 274 274 273 273 273 273 273 273 272 271 271 271 271 270 270 270 271 270 270 270 269 269 269 268 268 268 268 267 267 267 267 267 267 267 267 267 267 267 267 267 267 267 267 267 268 268 268 267 267 267 267 267 267 267 268
277 277 278 281 279 280 278 280 278 277 275 276 274 273 270 267 265 264 258 262 261 262 264 264 266 266 273 275 274 271 272 272 273 273 272 272 273 272 271 271 271 271 271 271 270 270 270 270 270 269 269 269 269 269 267 267 267 267 267 267 267 266 266 266 267 267 266 266 267 267 267 267 267 268 267 267 268 267 267 267 267 267 267 268 268 268
275 273 279 280 278 278 278 280 278 279 268 274 273 267 270 273 271 264 265 268 265 260 263 262 269 272 274 276 270 270 271 272 272 272 272 272 272 272 271 271 271 271 271 270 270 270 270 270 269 269 269 269 269 267 267 267 267 267 267 267 266 266 266 266 266 266 266 266 266 266 266 267 266 266 266 266 266 267 267 267 267 267 267 268 268 268
271 276 278 277 278 280 278 278 278 277 278 272 267 271 275 274 272 266 263 258 254 258 264 263 267 270 269 271 269 270 270 272 272 272 272 273 272 271 272 271 271 271 271 271 271 271 271 270 270 269 269 268 268 267 267 267 267 267 267 267 266 266 266 266 266 266 266 266 266 266 266 266 266 266 266 266 266 266 266 266 267 267 267 267 267 268
274 271 275 278 278 279 279 279 277 278 278 275 275 275 272 262 266 264 262 261 263 261 262 265 263 267 267 271 270 272 270 272 272 273 272 272 272 272 272 272 271 271 270 270 270 270 270 270 269 268 268 268 267 268 267 267 267 267 267 267 266 266 266 266 266 266 266 266 266 265 266 266 266 266 266 267 267 266 265 265 266 266 266 267 267 267
275 270 274 278 277 278 278 276 269 273 277 278 277 275 275 271 264 263 264 260 260 261 260 267 264 269 270 268 269 276 275 274 274 272 272 273 274 274 273 272 271 271 270 270 270 270 270 270 269 269 268 267 266 267 267 267 267 266 266 266 267 266 266 266 265 266 265 266 266 266 266 266 266 266 266 266 265 265 265 265 265 266 266 266 267 266
274 274 268 274 277 277 272 275 273 273 269 272 270 266 272 264 270 268 264 263 264 256 256 255 262 270 277 273 274 276 276 276 274 275 274 273 273 273 273 272 272 271 270 270 270 270 270 269 269 269 269 268 267 268 268 267 266 266 266 266 266 265 265 265 265 265 265 266 266 265 265 265 265 265 266 265 265 265 265 265 266 266 266 266 266 266
271 275 269 272 274 274 275 276 275 274 274 273 271 267 270 263 268 263 266 262 259 262 260 257 265 271 278 276 277 277 277 276 275 274 275 274 273 273 272 272 272 271 270 270 270 270 269 269 269 268 268 267 267 267 267 267 266 266 266 265 265 265 264 264 264 265 265 265 265 265 265 265 265 265 265 264 264 264 264 265 265 265 266 265 265 266
275 272 272 270 274 276 277 275 276 276 275 273 275 271 271 264 264 262 261 261 261 260 258 258 257 268 274 271 274 275 275 275 275 273 273 274 273 273 272 272 272 271 271 270 270 270 270 269 269 268 267 267 267 267 267 266 266 265 265 265 264 263 264 265 264 265 265 264 264 264 265 265 264 264 264 263 264 264 264 265 265 265 265 265 265 266
283 267 266 272 275 274 275 274 275 274 276 275 275 272 270 266 267 269 265 258 261 259 261 259 259 269 277 273 273 273 273 272 272 272 273 273 273 273 272 272 271 271 270 271 270 270 269 268 268 267 266 266 266 266 266 265 265 265 264 264 263 264 264 264 264 264 264 264 264 264 264 264 264 263 263 263 263 263 264 264 264 265 265 265 265 265
272 272 272 267 270 272 273 273 273 275 275 271 268 270 270 266 265 260 261 258 265 262 266 262 261 269 278 272 274 272 272 272 273 273 272 272 273 273 273 272 272 271 271 269 269 268 268 267 267 267 267 266 266 266 265 265 265 264 264 263 263 263 264 264 264 264 263 263 263 263 263 263 263 263 263 263 263 263 264 264 264 264 264 264 264 264
274 270 270 269 267 267 270 271 273 269 267 272 272 271 268 268 265 266 266 260 262 263 265 260 263 273 280 278 277 276 274 274 274 274 274 273 273 275 274 273 272 271 270 269 268 268 267 267 267 267 266 266 266 265 265 265 264 264 263 263 264 263 263 263 263 263 263 263 263 262 262 263 263 263 263 263 263 263 263 264 264 264 264 264 264 264
268 271 273 271 270 270 274 276 277 279 275 271 270 269 268 267 267 266 263 260 265 262 264 268 270 275 276 277 278 280 280 280 280 279 277 277 277 275 274 274 273 271 270 269 268 268 268 267 267 267 266 266 266 266 266 265 264 263 263 263 263 263 263 263 263 263 263 262 262 262 262 262 262 263 263 263 263 263 263 263 263 263 263 263 263 263
266 269 272 274 274 277 278 277 278 277 275 276 274 273 270 269 268 268 268 268 267 262 267 272 272 270 273 277 279 280 281 281 280 280 280 280 279 278 277 274 275 272 270 268 268 267 267 267 267 267 266 266 266 266 265 265 264 263 263 263 263 263 263 263 263 262 262 262 262 262 262 262 263 262 263 263 263 263 263 263 263 263 263 263 262 262
268 268 266 269 269 273 275 276 277 276 276 276 275 274 271 269 268 268 270 273 269 268 270 276 272 270 276 278 280 280 281 280 280 280 280 280 278 276 274 272 271 271 270 269 268 268 268 268 268 267 267 266 266 266 265 265 264 264 263 263 263 263 263 263 262 262 262 262 261 262 262 262 262 263 262 263 262 262 262 262 262 262 262 262 262 262
271 266 264 266 271 274 275 276 276 275 274 273 273 274 275 271 269 271 272 273 272 272 274 275 274 274 277 278 280 280 281 280 280 280 279 277 277 276 274 272 272 271 270 269 269 269 268 269 268 268 267 267 266 266 266 265 264 264 263 263 263 263 263 263 262 262 261 261 261 262 262 262 262 262 262 262 262 262 262 261 261 261 261 261 261 261
273 268 275 267 268 272 274 273 272 272 270 272 276 275 275 274 272 271 272 272 271 271 273 273 272 271 276 279 279 280 280 280 278 277 277 278 277 275 274 273 273 272 272 271 270 269 269 269 269 268 267 267 266 266 266 265 264 264 263 263 263 263 263 263 262 261 261 261 261 261 261 261 261 261 261 261 261 261 261 261 260 260 260 260 260 260
271 267 264 261 268 272 273 273 274 274 274 273 273 273 273 271 268 270 268 271 269 270 271 268 268 272 278 280 278 278 278 278 278 279 279 279 278 276 274 274 274 274 273 272 271 271 270 269 269 268 267 267 267 266 266 265 264 264 263 263 263 263 263 263 262 261 261 261 261 261 261 261 261 260 260 260 260 260 260 260 259 259 259 259 260 260
268 265 267 265 268 269 272 272 274 274 272 268 267 271 274 272 273 271 273 272 274 275 270 270 273 280 281 282 280 280 281 281 280 281 280 280 280 277 276 276 276 276 274 274 273 272 271 270 269 269 268 267 267 266 266 265 264 264 264 264 264 264 263 262 262 261 260 261 260 260 260 260 260 259 259 259 260 259 259 259 259 259 259 259 260 260
265 266 265 267 267 266 270 272 273 270 268 270 278 275 276 277 275 273 276 276 275 276 275 278 280 282 281 280 280 280 280 281 282 283 282 280 279 279 279 277 276 276 276 275 274 273 272 271 270 270 269 268 267 266 266 265 265 265 265 264 264 263 262 262 261 261 260 260 260 260 260 260 259 258 258 259 259 258 258 258 257 258 259 259 260 259
266 266 267 263 266 267 267 271 271 267 266 276 277 275 276 278 277 277 277 277 277 276 276 277 278 279 280 281 281 281 281 282 281 280 280 280 278 277 277 278 277 277 276 275 273 272 272 271 270 269 268 267 267 266 265 264 264 264 264 263 262 262 262 261 261 260 260 259 259 259 259 259 258 258 258 258 257 257 257 257 257 258 258 258 259 259
266 267 264 268 263 264 266 262 265 270 275 280 277 273 274 274 273 274 274 278 278 277 277 276 278 279 280 280 281 281 281 277 274 275 276 277 278 277 277 277 277 277 276 275 274 273 272 271 270 269 268 267 266 265 265 264 264 263 262 262 262 262 262 261 260 260 259 259 259 258 259 258 258 257 256 257 257 256 257 257 257 257 258 258 258 259
271 264 266 268 266 266 262 262 271 275 276 275 274 276 273 276 273 273 269 277 281 277 276 277 278 279 279 280 280 281 276 273 275 278 280 280 280 279 277 278 278 278 277 277 275 274 273 272 270 270 268 266 265 264 264 264 263 262 261 261 261 261 261 260 259 259 259 258 258 258 258 258 258 256 255 256 256 256 256 257 256 257 258 257 258 259
275 270 268 269 267 265 267 265 265 264 266 271 275 274 274 274 273 274 271 274 281 281 280 278 278 280 281 282 282 278 273 276 277 281 285 283 280 279 278 277 277 277 276 275 273 272 271 271 270 269 267 265 265 265 264 263 262 261 260 260 260 260 260 259 259 259 259 258 258 258 258 258 257 256 255 255 255 255 256 256 257 257 258 257 258 259
272 271 268 267 267 263 265 264 261 262 271 275 274 274 274 273 273 272 269 270 276 276 278 277 278 280 280 280 281 278 275 275 277 281 286 282 277 277 277 276 276 275 274 273 272 271 270 269 268 267 266 265 264 265 264 263 262 260 260 260 259 259 259 259 259 259 258 258 258 258 258 257 256 256 255 255 255 255 255 255 256 257 258 258 259 260
268 263 265 267 264 263 261 263 265 263 270 273 272 273 273 272 273 274 271 274 282 283 281 276 278 280 281 281 281 278 276 274 277 282 286 284 276 275 275 276 274 273 272 271 271 271 270 268 267 265 265 264 265 265 263 262 261 260 260 259 259 258 258 259 259 259 259 259 258 258 257 257 256 256 255 255 255 255 255 255 256 257 258 259 259 259
267 267 265 268 261 265 269 264 261 269 275 274 273 273 273 272 274 268 270 278 285 284 284 283 282 282 282 282 281 278 281 282 283 284 285 285 280 277 274 273 273 273 272 271 270 271 268 267 266 266 265 265 265 265 264 262 261 260 260 259 259 258 259 259 259 259 259 258 258 257 257 257 256 255 255 254 254 255 255 256 256 257 257 258 259 260
264 261 264 262 263 263 265 265 267 269 276 274 273 273 273 273 272 273 282 286 284 283 284 283 282 283 283 283 282 282 283 283 284 284 283 283 282 281 279 275 272 271 271 271 270 269 268 267 266 266 266 266 265 264 263 262 261 260 260 259 258 259 260 259 259 259 258 258 258 257 257 256 256 256 255 254 254 254 254 255 256 257 257 258 259 259
269 268 264 263 265 266 265 261 265 267 272 274 274 273 274 272 279 285 285 284 284 283 283 283 283 283 284 283 284 283 283 283 283 283 283 283 282 281 280 278 273 271 271 269 269 269 268 267 266 266 266 266 265 264 263 262 261 260 260 259 259 260 260 259 258 258 258 257 257 256 256 255 255 255 254 254 254 254 253 255 256 257 258 259 259 259
270 272 265 265 268 269 263 265 270 278 280 275 277 279 278 279 285 285 283 282 284 284 283 283 284 284 284 283 282 282 282 282 282 282 282 282 282 282 281 278 274 272 272 271 270 269 268 267 267 266 266 265 265 264 263 262 261 260 259 259 261 260 259 259 258 258 257 256 256 256 255 255 254 254 254 254 254 254 253 255 256 257 257 258 258 259
275 273 271 274 269 273 274 272 279 283 283 278 277 281 283 284 284 284 282 282 281 283 285 284 283 284 283 282 282 282 281 282 281 282 281 281 281 281 281 281 279 275 273 271 270 269 268 267 267 266 265 265 264 263 262 262 261 260 259 260 261 259 259 258 257 257 256 255 255 254 254 254 254 253 253 254 253 253 254 255 256 256 257 258 257 258
279 277 276 276 274 275 278 281 282 281 282 284 281 280 280 282 284 283 282 282 284 284 285 283 283 283 283 283 281 281 281 281 281 281 281 281 281 281 281 281 279 276 273 271 270 269 268 268 267 266 265 264 264 263 262 262 261 260 260 261 260 259 258 257 256 255 255 255 254 254 253 252 252 252 253 253 253 254 255 256 256 256 257 258 258 258
275 276 277 275 275 275 272 276 279 282 283 284 284 285 284 283 282 281 283 284 284 284 284 284 283 283 283 282 281 281 281 281 280 281 281 281 280 280 280 279 278 276 273 271 271 270 268 267 266 265 265 264 264 263 262 262 262 261 262 261 260 259 258 256 255 255 255 254 254 253 253 252 252 253 253 254 253 254 255 256 256 256 257 257 257 257
274 279 276 275 275 275 278 282 282 282 282 283 283 282 284 285 285 285 285 284 284 284 284 284 283 282 283 282 282 281 280 281 280 280 280 280 279 279 279 279 278 277 275 273 271 270 268 267 266 265 265 264 264 263 262 262 261 261 261 261 260 258 257 256 255 255 254 254 254 253 252 252 254 254 254 254 253 253 254 255 256 256 256 256 257 259
277 277 274 277 276 278 279 280 281 282 283 283 282 283 284 284 284 284 284 283 283 283 283 283 283 282 282 281 282 281 280 280 280 280 279 279 279 279 279 278 278 277 276 273 271 269 268 267 266 266 265 265 265 263 262 261 261 261 261 261 260 258 257 255 255 255 254 254 253 253 254 253 253 253 253 253 253 253 254 255 256 257 259 260 260 261
277 276 277 275 275 274 275 280 282 277 278 282 283 284 284 284 283 283 283 283 283 282 283 282 283 284 283 283 282 281 280 280 280 280 279 279 278 278 278 278 277 277 276 274 272 270 268 267 267 266 265 265 265 263 262 261 261 261 261 260 259 258 256 256 255 254 254 254 253 252 253 253 253 252 253 253 252 253 254 259 263 263 262 262 266 268
278 279 277 276 272 276 282 283 283 281 281 282 283 284 284 284 283 282 282 282 283 283 283 282 282 282 282 282 283 281 280 280 280 280 278 278 278 278 278 277 276 276 276 275 271 269 268 267 266 266 265 265 265 263 262 261 261 260 260 260 259 258 257 256 255 254 254 254 253 253 253 253 253 252 252 252 252 251 253 254 257 263 265 266 267 268
Wind_Speed
1 9 7 4 4 5 3 2 0 3 5 3 2 2 6 5 6 4 5 3 1 4 3 4 5 5 7 8 10 9 6 6 6 8 8 8 7 7 5 4 4 4 4 3 3 3 3 2 1 1 1 2 2 3 3 3 3 4 4 4 5 4 5 5 6 5 5 7 8 5 6 7 7 8 9 7 5 6 6 7 8 8 8 9 11 12
5 10 3 1 2 4 2 0 4 5 2 1 2 1 6 3 8 5 5 3 2 4 5 2 4 9 9 6 7 5 6 11 11 9 9 9 8 7 6 5 4 4 2 3 3 3 3 1 1 1 1 2 3 2 3 3 2 2 2 3 3 3 4 4 6 4 5 6 6 7 6 6 7 7 7 7 5 7 7 7 6 7 8 8 8 7
8 6 0 2 2 3 3 5 4 4 2 3 1 1 2 6 4 10 1 1 0 3 9 2 5 9 9 7 5 9 12 8 8 11 10 10 9 7 6 5 3 3 4 3 3 2 2 2 2 1 1 1 1 2 2 1 1 2 2 2 3 3 3 3 5 4 6 5 5 6 7 7 7 6 6 5 4 5 6 6 6 6 6 6 6 6
4 1 1 1 3 3 2 5 6 4 3 3 3 2 5 3 5 7 5 4 4 1 5 2 5 9 3 3 6 6 8 5 6 8 8 8 10 8 8 5 4 3 4 4 3 3 4 3 3 2 1 1 2 1 0 0 1 1 2 1 2 2 2 3 4 7 6 7 6 6 6 8 7 7 7 5 4 4 7 7 7 7 8 7 6 6
4 1 0 5 6 4 0 2 4 6 6 2 2 2 3 4 4 5 7 6 8 3 2 1 5 6 2 5 6 7 5 4 4 5 7 6 5 6 4 4 4 4 4 4 3 4 4 3 3 3 2 3 3 2 1 0 1 2 1 0 0 1 2 2 4 4 6 6 5 5 6 6 7 6 4 4 5 6 7 7 7 9 9 9 7 7
2 1 0 3 5 6 2 2 1 1 5 6 5 4 5 4 6 6 5 8 7 4 1 4 9 5 2 7 11 4 3 9 5 7 10 9 6 4 6 6 5 6 5 4 4 6 5 4 5 4 3 3 3 2 2 2 2 1 1 1 0 1 1 2 2 3 4 6 6 6 7 8 7 7 8 8 8 8 7 7 7 7 8 8 7 7
2 2 3 1 3 3 2 1 1 1 1 1 4 5 4 4 4 5 5 3 4 0 1 2 2 10 1 5 9 7 7 12 4 8 11 8 8 7 7 7 6 5 4 3 4 4 4 4 5 4 4 4 4 3 4 3 3 2 1 1 1 1 1 1 2 2 3 4 5 5 6 6 7 7 6 6 6 7 7 6 7 8 6 6 7 7
1 2 4 5 4 1 2 3 2 3 2 5 2 3 6 5 6 6 3 4 6 2 4 1 4 2 10 7 3 1 6 10 9 13 12 10 8 9 8 7 6 5 4 5 5 5 5 6 7 6 5 5 5 5 4 4 3 2 2 1 2 1 2 1 1 1 2 4 4 6 6 7 6 7 8 7 7 6 7 7 8 7 6 5 4 5
1 1 1 1 3 0 1 2 3 3 2 5 7 6 9 8 8 4 3 4 2 2 7 3 1 1 5 6 3 1 3 7 14 15 14 13 11 10 9 8 6 6 6 5 5 6 5 7 6 5 6 6 6 5 5 4 3 3 2 2 2 3 2 1 1 2 2 4 5 5 5 6 6 7 7 7 7 7 7 7 6 5 6 6 6 5
1 0 3 3 2 1 4 3 3 7 1 4 5 9 3 2 1 2 2 3 1 2 6 3 2 2 9 4 2 1 3 9 12 14 14 13 13 11 9 7 8 6 5 5 7 6 6 6 6 6 6 6 7 6 5 3 4 3 2 2 2 4 2 2 1 0 2 3 4 5 5 7 7 7 7 6 6 6 6 7 6 6 6 6 6 5
1 3 5 3 2 2 2 4 2 5 5 5 3 5 7 5 3 2 4 2 3 1 7 3 1 3 6 5 7 4 8 8 5 4 5 4 7 9 8 8 8 6 5 6 6 6 7 5 7 6 7 8 6 4 4 4 4 3 2 3 4 4 3 2 1 2 2 3 3 5 5 7 8 8 8 8 8 7 7 7 7 6 6 6 6 6
1 1 0 1 0 1 1 4 1 1 1 4 4 3 6 1 6 3 4 5 2 6 5 2 1 1 1 9 6 9 4 4 7 7 7 8 10 11 8 8 7 6 6 6 6 7 6 4 6 6 6 6 6 5 4 4 4 3 3 3 4 4 2 3 2 2 3 3 4 4 6 7 7 8 7 9 9 8 8 8 8 6 6 6 6 6
0 2 1 5 2 1 1 2 4 3 5 8 5 7 8 5 6 2 5 3 2 3 1 4 1 3 8 11 8 6 10 7 7 8 9 8 9 9 8 9 7 6 6 6 7 7 6 6 8 7 6 5 4 5 4 6 4 4 4 4 5 4 2 2 2 2 3 4 4 4 6 7 7 7 8 8 8 7 7 7 8 8 8 7 7 6
4 1 4 3 3 1 1 3 5 3 3 7 5 3 6 7 5 4 5 3 4 3 1 4 1 4 6 9 9 13 11 9 9 9 6 7 9 9 9 8 7 7 7 8 8 8 7 7 7 7 6 6 5 5 5 5 4 3 4 4 5 5 2 2 2 3 4 4 4 4 5 6 6 7 7 7 7 7 6 6 7 7 8 9 8 8
4 5 2 1 1 1 1 1 1 3 1 2 1 1 2 4 1 3 2 4 7 9 6 1 2 6 5 7 2 7 5 4 5 6 5 6 7 7 6 6 7 7 7 8 8 8 8 8 7 6 6 6 6 6 6 5 4 4 4 4 5 4 4 3 4 3 4 4 5 5 5 6 5 7 7 5 6 6 7 6 7 7 7 8 7 7
2 6 3 1 1 0 3 0 2 2 2 0 2 4 5 2 5 3 4 3 5 7 11 1 6 4 6 3 1 2 3 3 3 5 4 9 7 6 6 8 9 8 9 8 9 8 8 7 6 6 6 6 5 6 5 6 5 4 5 5 5 5 4 4 4 4 4 5 5 5 6 6 7 7 7 7 7 7 7 8 7 8 8 7 7 7
3 2 0 2 4 1 1 0 1 0 2 1 2 1 2 3 4 1 2 1 1 2 9 2 9 5 6 9 2 3 4 8 4 7 7 11 9 7 10 10 9 9 9 8 8 9 9 7 7 8 7 6 5 6 7 6 6 6 5 5 5 5 5 5 4 5 5 6 6 6 6 6 6 7 7 6 7 8 7 7 7 8 8 9 8 8
1 9 1 3 1 1 0 2 2 3 1 2 2 3 1 2 4 3 2 4 2 2 7 3 6 13 9 10 2 4 5 11 8 10 12 11 7 10 12 11 11 10 10 9 9 9 9 9 9 9 7 7 8 7 7 7 6 6 5 5 5 5 5 5 5 5 5 6 6 7 6 6 6 7 7 6 6 6 6 6 8 7 8 8 8 8
2 5 2 1 1 2 1 0 2 1 1 2 2 3 1 1 3 2 2 5 7 5 8 6 5 9 6 11 4 6 4 10 10 10 9 12 12 13 13 12 10 9 7 7 9 9 9 9 9 9 9 8 8 7 7 7 6 5 5 5 6 6 6 5 4 5 6 6 6 5 6 6 7 7 7 6 6 6 6 8 7 7 8 9 8 7
1 1 6 0 1 1 0 2 2 1 2 1 2 1 1 3 2 0 1 2 5 7 6 9 5 12 6 7 5 10 7 8 9 4 10 13 13 12 11 11 10 9 9 9 9 10 10 10 10 10 9 9 9 8 7 7 6 7 6 6 5 5 5 4 5 6 7 7 7 7 7 7 6 7 6 6 6 6 7 7 8 8 8 7 6 6
1 2 3 2 2 1 2 3 4 7 3 1 2 1 1 0 2 4 0 3 3 3 2 2 10 10 9 7 5 11 10 10 8 10 9 10 11 11 11 11 10 9 9 10 10 10 10 10 9 9 8 7 7 7 6 6 7 7 6 6 6 6 6 6 6 6 7 6 6 8 8 7 7 7 7 7 6 7 7 8 9 8 6 5 6 7
2 0 5 5 7 2 4 1 3 7 6 6 7 5 7 2 1 2 8 1 1 2 3 0 12 13 16 3 9 9 9 7 8 9 11 9 10 10 10 10 10 9 10 11 10 10 9 9 8 7 6 5 6 7 7 7 6 7 7 6 5 4 4 6 5 5 6 6 5 7 7 8 7 6 6 7 6 7 7 8 8 6 5 7 7 7
2 2 1 6 7 3 2 1 0 2 3 2 6 3 5 3 5 3 1 3 1 3 3 2 1 17 4 4 4 6 6 7 8 7 10 10 10 10 11 11 10 11 11 10 10 9 9 9 9 8 9 9 9 8 7 7 6 7 7 6 5 4 6 6 6 5 4 4 5 7 7 7 6 6 7 8 7 8 8 7 5 5 7 7 7 7
4 1 2 7 5 3 0 1 0 3 1 0 1 4 4 4 6 8 6 4 4 1 1 1 2 16 5 2 4 4 5 4 7 7 11 11 9 10 11 11 11 10 11 10 8 8 8 7 6 6 7 8 7 7 8 7 6 6 5 5 5 6 7 6 5 5 4 5 6 8 8 7 6 7 8 8 7 8 7 6 6 6 7 7 7 7
1 2 3 5 6 1 1 2 2 2 1 2 2 4 3 4 7 2 6 1 1 8 8 9 9 13 5 3 1 4 4 8 10 10 9 12 11 10 11 11 10 11 10 9 10 10 8 7 8 9 9 9 8 6 6 6 6 6 6 6 6 5 6 5 4 4 5 5 7 7 7 7 7 8 8 9 8 8 7 6 6 6 7 7 7 7
1 3 1 2 2 6 10 12 9 4 5 3 1 2 3 10 9 2 1 1 3 3 7 4 9 16 18 9 7 8 9 11 11 12 10 11 14 12 9 10 10 10 11 10 10 8 10 11 10 9 9 8 8 7 6 6 6 6 6 7 6 5 5 5 5 5 5 5 6 6 8 7 7 8 8 9 9 7 6 7 7 7 6 6 8 8
1 0 2 5 6 7 9 7 3 2 2 3 4 6 5 3 3 4 5 5 8 4 8 14 13 20 24 26 19 17 13 16 17 11 9 11 11 12 11 10 10 10 10 11 11 10 8 8 11 12 10 9 8 7 7 7 7 7 6 6 6 5 6 6 5 6 6 5 6 7 7 7 7 7 8 7 6 6 7 7 7 6 7 7 8 8
2 1 6 7 9 12 7 8 7 2 9 12 10 8 6 8 10 8 9 10 6 6 10 9 13 10 18 20 21 22 20 17 14 12 14 13 11 11 11 9 10 9 9 7 8 9 11 12 11 11 11 10 9 8 7 7 7 9 7 7 6 6 6 5 5 5 5 6 7 7 8 7 6 7 7 7 7 7 7 7 6 7 7 7 8 8
2 2 6 4 10 9 12 14 12 8 8 12 10 9 7 8 10 15 17 13 8 7 15 18 3 9 21 20 23 22 21 19 17 18 16 14 12 10 8 10 11 12 11 10 12 11 11 12 12 12 11 11 8 9 9 7 6 6 6 6 6 6 6 5 5 6 6 6 8 8 6 6 6 6 7 7 8 7 7 7 7 7 6 6 7 7
2 4 5 4 8 10 13 14 12 9 6 6 11 12 11 9 16 16 19 12 13 16 21 19 19 21 23 25 25 24 21 18 17 13 12 13 15 12 10 11 13 13 12 13 13 13 12 13 12 12 12 12 10 9 8 7 7 7 7 7 6 7 6 5 6 6 6 7 7 7 5 6 6 6 7 7 7 7 7 7 7 7 7 7 7 8
2 5 1 1 3 9 7 5 1 4 3 9 15 9 11 11 10 14 12 12 8 15 21 24 21 21 23 24 21 22 19 15 11 13 15 15 14 13 12 13 14 14 14 13 12 12 12 12 12 11 12 13 13 10 8 7 7 7 7 7 7 7 7 6 6 6 6 7 6 6 6 6 6 7 7 6 7 5 6 7 7 7 8 8 7 8
1 4 2 1 3 9 1 2 4 5 10 11 16 18 10 5 6 6 7 10 7 15 12 5 8 15 19 14 9 12 12 14 17 18 15 13 12 10 12 15 15 15 15 14 13 11 11 12 12 13 14 14 13 10 8 7 7 7 8 7 8 7 6 6 7 7 6 6 6 6 7 7 7 6 6 6 6 6 6 7 7 8 8 8 8 8
4 2 0 2 2 8 3 5 12 9 8 5 5 9 8 6 5 2 5 4 14 4 3 9 13 15 17 14 15 18 16 17 17 16 14 15 13 9 13 16 16 15 14 14 12 12 12 13 14 14 14 12 11 9 9 8 7 8 8 8 7 6 7 7 7 6 6 6 5 6 6 6 6 6 5 5 5 5 6 7 8 8 8 9 8 8
2 3 0 1 1 7 7 12 7 3 4 3 2 5 4 5 5 7 11 11 10 10 10 10 15 18 18 19 19 21 19 18 16 17 11 12 15 16 15 15 16 16 14 13 12 13 12 10 10 11 13 14 14 12 8 9 9 8 7 7 7 7 7 7 7 6 6 6 6 6 6 6 6 5 5 4 5 5 6 7 8 8 7 8 8 8
3 2 1 1 1 6 7 9 7 5 4 3 1 3 4 5 5 10 15 12 10 11 15 17 20 21 22 19 18 20 21 19 13 15 17 17 13 14 18 18 17 16 16 14 13 12 12 12 11 11 11 12 12 9 7 7 7 6 6 7 7 7 7 6 7 6 6 6 6 6 6 6 5 5 4 4 4 5 7 7 7 8 7 7 8 8
4 3 2 1 1 3 3 2 3 9 5 17 9 1 1 3 3 0 7 15 15 14 15 16 20 21 20 19 19 18 18 11 10 13 15 19 17 16 17 17 18 16 15 14 14 14 13 12 14 14 15 12 10 9 9 8 8 8 8 7 7 7 7 7 7 7 6 6 6 6 6 5 4 4 4 4 5 6 7 7 7 8 7 7 7 7
7 3 2 3 1 2 2 1 10 12 15 8 1 1 2 1 1 0 6 13 14 5 7 11 17 17 17 17 17 17 11 9 12 17 14 18 20 18 19 20 18 16 14 13 12 13 12 12 12 12 10 10 11 9 8 8 8 8 7 7 7 6 6 6 7 7 7 6 6 5 5 4 4 4 3 4 6 6 7 7 8 7 6 7 8 8
3 3 3 2 2 2 2 6 6 4 4 5 1 3 2 2 1 1 1 10 13 11 8 10 13 17 18 18 18 12 7 15 20 19 13 8 12 15 14 15 15 13 11 10 7 7 8 9 8 8 11 11 11 10 7 9 8 8 8 7 6 6 7 7 8 7 6 6 6 6 4 5 4 4 4 4 5 6 7 7 7 7 7 7 8 9
6 6 4 3 2 3 0 2 3 2 8 2 3 2 3 1 2 1 1 8 8 4 5 4 12 15 17 19 21 13 11 16 21 21 18 11 6 7 11 13 13 13 12 11 11 12 10 11 11 11 10 11 13 9 11 10 10 8 9 9 9 6 7 8 7 7 7 6 5 4 4 4 4 4 5 5 6 5 7 7 7 8 8 8 7 9
4 2 1 0 2 3 1 1 6 5 8 2 1 3 2 1 2 1 12 13 9 12 10 5 12 18 20 20 17 14 11 15 19 22 25 23 9 7 7 12 11 11 11 9 8 10 10 9 8 9 11 13 16 10 12 11 11 11 10 10 9 8 8 8 7 6 5 5 4 4 3 3 4 5 4 6 5 5 6 6 7 8 8 8 7 8
1 0 1 8 2 3 6 5 4 8 8 4 2 2 1 1 1 5 11 16 19 20 18 15 18 20 18 19 14 15 16 15 20 24 25 24 19 16 11 10 12 9 12 10 11 7 7 9 12 15 16 14 9 11 11 8 9 12 11 10 8 9 8 5 5 5 6 5 4 4 4 4 4 5 4 4 5 6 6 6 7 8 8 8 8 8
0 1 1 1 3 5 5 5 8 7 8 2 3 3 2 3 8 14 13 12 16 21 21 16 18 18 18 19 16 15 18 21 22 21 23 23 21 20 17 13 10 10 8 7 8 9 9 9 12 12 12 10 10 12 12 9 9 7 9 8 10 11 3 4 5 5 4 5 5 5 4 4 4 4 5 4 4 5 6 6 6 7 8 7 8 8
4 4 4 4 3 2 2 1 6 4 1 3 5 1 1 3 13 13 17 18 14 15 18 19 15 17 16 21 22 22 23 23 24 23 22 22 20 20 20 15 12 14 13 10 9 11 11 10 12 15 16 12 12 10 9 10 10 10 11 12 13 3 4 5 4 5 5 5 4 4 4 4 4 5 4 5 5 5 7 6 6 7 8 8 8 8
2 0 2 3 6 2 2 1 2 5 8 5 2 9 6 9 14 16 14 18 18 16 15 17 18 18 19 19 23 23 23 23 24 22 23 22 22 21 18 15 11 11 12 12 12 12 12 13 12 14 12 11 12 10 9 10 10 10 11 13 7 4 5 4 5 5 5 4 4 4 4 4 4 5 5 5 5 5 6 7 6 7 6 6 6 6
5 2 2 3 2 2 5 5 9 13 13 5 7 12 14 16 13 14 14 14 15 14 14 16 20 22 19 20 21 22 21 20 23 24 22 22 22 21 20 19 16 14 14 13 13 11 12 14 14 11 12 13 13 10 9 9 14 15 13 11 6 6 7 5 4 5 5 5 4 5 4 3 4 5 5 5 5 5 5 6 5 6 5 5 5 5
1 1 1 1 6 4 7 13 10 9 11 14 6 10 13 15 13 10 10 13 13 14 14 14 17 18 20 19 20 20 20 21 23 24 23 22 21 21 20 19 16 12 11 9 9 11 13 10 9 10 12 13 14 11 9 10 12 18 18 9 7 6 6 7 6 6 7 5 5 5 4 5 5 6 6 6 5 5 5 5 5 5 6 5 5 5
2 0 0 3 3 4 5 3 5 12 15 16 18 17 9 6 6 6 13 15 17 17 17 15 16 19 18 18 18 19 22 21 22 23 22 20 21 21 21 20 18 16 12 13 14 8 8 10 11 13 13 15 15 16 12 11 10 17 13 9 8 6 7 7 7 7 6 6 5 4 4 5 4 4 5 5 4 4 4 4 4 4 5 5 6 6
3 1 3 3 3 2 9 13 13 11 13 16 14 12 15 17 16 14 12 12 13 15 15 15 14 15 14 17 19 20 21 21 20 20 20 19 19 19 19 19 20 18 14 11 10 9 10 11 14 14 14 14 15 16 15 16 16 14 12 9 7 8 8 8 9 9 7 7 5 5 4 4 7 7 4 4 4 4 4 3 3 4 5 5 6 5
3 3 4 1 4 9 10 11 12 13 13 13 9 8 11 13 16 17 16 15 14 16 18 17 14 12 12 15 16 18 21 21 20 19 20 19 19 18 19 19 19 18 16 12 10 9 12 13 14 15 15 15 12 14 17 15 13 13 11 8 10 10 10 11 6 7 7 5 5 6 4 5 5 5 5 5 4 4 5 4 4 5 6 8 7 7
2 4 3 4 7 8 7 14 15 15 17 17 16 15 16 16 13 14 15 17 16 17 17 20 22 21 18 15 14 14 17 19 20 20 21 19 18 19 20 19 19 20 18 13 9 8 12 12 15 15 14 14 10 13 16 16 14 14 9 10 11 12 12 11 9 6 7 6 6 5 5 4 5 5 5 5 5 4 4 7 10 7 5 5 10 12
3 5 4 6 6 11 16 15 11 11 14 14 15 18 18 15 13 14 17 17 18 17 18 19 21 23 23 22 16 15 16 18 21 19 19 19 20 19 19 19 18 18 18 16 9 9 11 13 13 12 13 13 10 12 15 15 14 14 11 11 9 12 14 10 11 8 6 5 5 5 5 5 5 5 5 5 5 4 4 5 7 9 9 8 9 9
Wind_Direction
96 73 51 48 310 327 330 83 333 248 202 232 198 207 262 267 280 261 270 250 297 309 252 210 244 245 225 207 199 195 185 209 203 201 208 213 217 228 227 208 223 237 238 241 277 300 13 17 133 65 96 70 81 66 31 21 34 46 26 13 10 354 353 353 347 342 6 351 337 336 340 337 333 325 323 316 351 354 351 350 359 359 6 6 8 357
69 71 355 260 268 279 171 74 37 44 78 204 165 194 287 291 289 284 283 327 331 63 279 220 227 246 229 217 204 188 181 213 201 204 211 219 221 225 207 220 228 235 266 298 302 350 11 56 86 69 81 65 48 25 31 23 32 48 17 22 349 351 352 353 341 346 7 349 330 327 333 329 321 315 311 318 345 353 344 348 360 356 4 4 0 348
42 93 251 250 246 99 90 61 67 54 12 40 78 227 349 283 262 299 277 248 293 13 264 208 208 250 233 219 214 194 204 216 207 197 206 206 221 226 216 220 243 270 278 290 292 349 269 175 178 166 143 127 102 84 38 34 21 357 6 355 346 347 348 346 342 9 352 332 329 343 326 323 311 293 286 299 326 343 345 340 352 354 355 355 342 350
48 313 277 203 97 86 30 29 33 27 67 23 357 18 292 256 22 310 268 316 305 186 270 214 244 264 248 246 242 232 211 234 219 218 221 206 213 216 211 201 206 244 283 294 285 265 257 188 195 206 155 107 108 99 82 58 323 298 338 335 336 333 333 342 348 356 338 324 341 331 320 312 307 298 296 308 310 343 342 344 348 348 352 346 337 347
153 174 117 77 55 72 94 1 54 37 335 279 193 201 264 298 259 213 292 332 301 327 112 93 250 291 196 207 243 245 218 254 253 232 243 248 237 221 200 196 202 219 231 252 270 253 245 204 205 200 180 165 154 172 180 221 273 296 270 274 274 315 313 349 360 350 331 331 336 325 317 319 317 307 304 316 335 351 343 336 344 345 344 339 339 341
22 276 138 43 32 48 60 1 55 76 340 318 226 198 264 244 275 277 298 345 356 332 270 29 346 305 296 231 240 231 211 243 224 227 236 235 235 203 213 218 229 231 224 215 236 224 221 213 206 219 174 172 169 182 214 213 241 240 232 237 243 290 310 357 336 343 333 338 328 329 335 333 334 330 339 338 338 340 335 334 329 329 329 329 333 333
165 354 75 119 78 48 40 193 209 115 308 40 280 191 226 254 254 270 296 32 319 339 280 56 91 277 12 263 233 225 220 241 241 238 244 237 229 213 215 220 224 233 261 266 244 234 233 233 215 214 185 188 191 203 211 227 232 212 208 223 230 274 316 320 327 335 344 322 323 319 324 320 314 320 314 315 320 316 314 316 320 316 316 317 321 326
60 2 50 38 59 53 1 14 240 139 74 296 238 337 316 300 282 273 253 187 234 287 297 97 142 227 310 278 292 262 222 249 255 249 247 240 228 220 220 222 227 232 231 232 235 226 231 225 213 218 190 194 205 205 215 226 204 194 222 228 262 273 309 275 295 329 340 324 312 318 315 314 314 312 309 315 312 305 312 313 309 306 312 318 323 334
125 253 86 35 73 68 49 229 247 165 168 247 297 314 297 284 270 255 191 208 235 12 298 328 34 335 253 264 10 73 251 256 253 247 243 236 227 222 224 227 232 232 227 220 229 227 230 233 224 198 192 207 204 208 214 214 187 205 221 256 250 266 239 211 276 338 318 314 319 308 307 304 309 306 309 312 306 308 306 301 300 310 323 325 332 329
321 147 214 125 123 284 251 258 214 155 250 285 279 302 280 281 226 162 131 127 338 58 287 248 201 241 279 268 346 23 244 264 249 245 239 230 220 215 219 232 233 237 238 230 226 223 231 237 209 200 198 199 209 207 219 187 189 207 216 256 275 264 243 177 158 242 275 280 299 295 295 305 305 306 303 300 301 304 304 299 313 320 314 317 316 321
278 313 155 93 193 211 277 272 198 201 226 303 4 341 329 25 48 56 73 85 59 360 255 205 158 127 294 265 221 145 223 205 240 268 257 232 220 220 222 224 230 229 235 236 230 228 234 236 204 199 195 210 209 213 209 191 201 205 216 244 255 262 233 167 170 214 256 273 279 284 292 298 302 306 304 303 305 304 305 307 311 308 309 307 308 311
359 355 142 261 82 339 78 323 352 180 170 29 7 337 337 16 7 40 349 35 77 278 257 195 94 101 257 293 261 233 257 212 197 229 230 224 218 220 222 230 228 226 231 235 231 238 241 243 217 216 217 208 212 219 217 197 206 205 232 245 262 259 216 195 184 223 255 266 273 283 291 294 293 295 300 304 301 302 303 308 307 305 302 302 304 304
185 211 294 313 279 69 315 36 311 13 2 23 347 3 34 301 28 335 14 358 191 221 195 168 352 342 227 232 259 268 239 242 220 214 212 213 221 222 234 232 226 225 229 231 231 232 231 222 221 227 230 212 215 222 219 197 201 213 232 249 263 254 200 202 208 228 259 267 275 284 292 290 292 289 294 293 291 294 301 304 303 311 312 311 309 309
288 279 335 283 12 145 106 51 316 9 345 10 28 17 49 8 17 329 276 221 294 272 248 181 200 245 262 280 248 251 255 230 220 218 212 203 211 222 230 230 227 226 224 226 227 226 224 223 226 223 219 208 216 217 196 196 203 223 241 247 257 248 210 241 240 242 256 263 272 276 280 287 287 286 289 285 286 292 294 298 304 306 306 305 301 305
18 346 281 164 266 10 77 157 176 203 343 249 197 114 152 133 126 305 303 325 289 279 280 209 60 239 5 264 229 226 284 277 221 222 222 228 229 233 232 229 226 231 233 225 227 224 222 224 218 220 206 207 216 200 190 195 209 225 244 244 256 229 235 232 241 244 259 272 273 272 272 278 291 293 284 281 293 301 305 305 302 299 297 292 295 294
209 232 248 306 208 75 123 228 127 89 73 204 145 102 58 274 134 178 203 218 307 344 323 267 193 202 211 239 281 295 311 296 252 245 245 250 245 242 244 233 229 229 230 225 227 230 229 219 213 206 205 208 208 190 194 201 208 223 234 235 217 220 233 241 278 273 270 274 276 271 275 271 283 290 295 294 297 298 296 295 295 295 292 290 296 296
19 292 255 309 43 84 171 224 10 87 15 279 53 17 209 178 115 331 340 304 43 52 250 207 301 264 287 285 351 336 326 270 259 255 246 247 244 236 239 235 231 229 228 227 226 228 227 217 210 207 206 204 194 186 196 207 207 216 230 234 224 223 225 233 260 262 267 274 274 275 270 274 279 278 278 280 284 287 287 290 294 296 294 294 293 296
143 270 289 110 258 30 249 116 100 21 135 61 46 231 132 131 121 119 280 323 75 163 271 31 276 304 21 300 354 337 289 271 249 242 240 248 243 239 239 235 230 228 227 226 226 225 219 212 208 208 208 202 199 199 206 210 209 212 216 219 223 237 234 244 252 266 271 274 279 279 275 272 272 276 275 277 280 284 292 293 294 289 290 291 294 292
103 330 304 270 198 260 27 50 356 18 49 145 184 173 78 325 341 320 89 345 343 313 296 287 274 263 198 257 329 287 226 261 254 245 246 249 240 238 242 241 237 236 237 232 233 228 222 214 212 206 207 202 197 200 205 211 210 213 214 218 215 218 224 238 247 267 274 274 273 261 272 277 282 276 277 281 289 295 289 286 282 285 289 289 287 291
45 161 295 4 98 320 4 67 277 272 338 55 58 42 333 109 187 119 210 184 126 274 10 290 10 288 202 228 208 274 258 261 260 246 238 238 237 237 239 238 235 234 230 232 229 225 221 217 210 206 202 197 197 202 208 210 213 216 216 222 221 218 218 239 257 262 266 264 263 269 274 277 276 280 282 286 289 284 282 284 286 285 282 281 290 292
155 130 264 276 302 5 321 186 206 158 159 310 37 318 345 21 209 117 335 154 190 204 196 261 319 289 271 191 220 255 259 255 237 249 244 242 239 237 235 234 233 230 232 230 228 225 223 218 212 207 203 202 201 206 208 210 211 220 221 212 210 219 231 244 256 258 260 263 266 272 276 279 278 280 280 278 271 277 283 283 283 279 278 290 291 295
84 188 216 308 346 185 236 232 191 178 169 173 168 204 172 127 195 6 280 41 66 111 236 83 280 279 282 143 218 239 257 246 244 236 250 246 244 239 238 236 229 234 231 229 226 223 220 218 212 206 196 196 197 207 214 210 213 220 219 214 211 213 219 249 254 252 258 257 260 269 276 280 282 280 281 279 277 279 279 277 273 276 292 291 290 290
146 174 94 283 233 254 183 164 310 179 140 176 155 223 147 132 105 113 280 278 349 243 118 158 70 273 226 207 186 231 246 240 243 232 245 251 248 245 241 237 233 227 230 226 225 221 218 211 208 199 194 197 202 210 211 210 212 219 219 207 201 204 237 236 241 243 249 260 267 275 278 279 278 280 279 278 279 278 275 273 281 291 289 287 287 284
86 80 356 260 286 359 346 307 281 28 104 51 296 108 121 170 179 176 187 174 164 267 135 24 213 264 286 199 205 256 262 275 269 238 244 254 255 250 246 241 235 235 235 233 228 223 216 211 205 194 201 205 206 205 204 209 216 220 208 196 199 222 241 249 245 244 248 262 267 273 276 277 278 278 278 277 277 274 271 276 282 285 282 283 286 288
69 283 127 316 345 353 29 340 343 330 33 204 212 221 145 91 77 136 103 28 292 218 180 134 248 276 278 132 272 276 283 271 259 249 235 260 257 249 247 242 235 232 232 229 226 221 215 209 206 209 207 208 209 210 208 211 215 207 206 199 210 222 233 241 240 247 255 260 263 266 269 271 273 274 276 277 277 273 275 281 284 280 280 285 286 290
166 217 106 340 2 342 329 337 327 312 229 224 199 121 163 133 131 122 221 83 196 274 147 181 252 251 276 284 305 294 276 274 262 254 253 235 254 260 252 241 237 228 229 225 225 217 216 214 213 212 211 209 209 210 213 215 208 206 202 205 207 220 225 233 236 243 250 248 259 266 266 266 268 271 276 277 273 275 283 284 280 280 281 286 289 289
170 327 195 169 164 213 226 233 242 58 357 265 233 158 204 182 166 108 109 122 216 208 192 236 225 277 293 293 299 295 296 293 298 295 267 264 257 251 251 252 240 230 228 224 219 220 221 221 219 217 210 209 207 206 211 208 205 202 190 200 209 214 225 228 231 237 240 249 257 268 264 265 267 271 273 271 278 285 286 282 281 284 289 289 285 284
67 320 245 219 237 238 247 257 271 346 271 270 270 259 193 177 168 156 172 224 152 87 278 240 240 249 267 285 294 297 296 294 289 287 289 284 277 269 262 252 248 242 239 231 226 220 220 222 221 216 212 207 208 203 207 206 203 186 185 200 204 215 222 227 226 228 242 252 262 263 267 264 271 274 274 278 281 281 280 280 285 289 287 285 282 281
145 201 273 135 257 249 258 263 270 273 246 258 253 253 243 192 165 188 225 219 131 204 246 270 249 273 281 281 284 288 288 290 291 289 286 285 285 281 269 257 250 245 242 230 231 224 222 225 220 218 208 201 191 197 197 192 189 185 194 198 206 212 219 221 220 232 240 251 257 260 259 266 272 274 273 277 279 277 282 288 288 285 283 281 281 280
101 251 241 193 272 264 261 258 258 241 266 268 253 245 243 200 202 203 234 221 200 237 249 268 281 272 275 281 280 281 286 287 285 288 290 286 278 274 265 258 253 251 242 237 234 227 224 225 223 217 199 189 195 196 196 194 193 193 197 207 211 219 220 207 218 222 235 245 254 257 261 272 272 271 275 275 277 283 287 287 287 286 283 281 279 278
135 274 115 251 325 283 256 256 243 211 214 277 278 244 237 232 223 215 238 251 226 266 265 263 275 279 271 265 272 277 279 281 289 279 271 275 278 271 264 260 257 254 249 243 238 230 224 222 221 215 207 198 191 196 197 195 191 191 202 209 210 215 214 202 215 223 232 246 250 257 264 264 270 274 274 278 282 284 285 287 288 286 283 282 278 277
124 261 49 68 359 293 326 18 306 290 264 255 277 288 269 220 246 200 200 220 166 228 252 312 290 271 272 268 243 255 272 283 282 285 287 278 270 263 258 260 259 256 253 246 238 230 224 220 213 211 209 197 192 193 195 194 189 195 208 205 211 210 202 210 223 229 230 236 245 252 260 267 270 272 273 278 278 283 285 286 286 285 284 282 281 279
183 146 66 45 343 262 267 337 315 318 318 335 283 235 216 209 217 230 254 203 212 191 308 269 257 261 276 293 301 288 281 281 285 283 284 287 277 252 254 262 263 259 252 248 240 230 224 220 214 215 210 198 191 189 192 180 186 204 204 203 211 197 201 217 223 226 230 232 239 250 255 260 261 264 269 271 277 282 285 286 285 285 283 281 281 281
109 118 164 174 206 267 328 327 314 2 341 246 238 170 141 244 220 243 258 228 226 167 221 218 260 282 292 291 286 284 285 278 275 282 277 271 283 284 272 259 258 258 257 250 239 233 230 220 218 210 207 196 188 180 171 179 190 200 194 198 196 198 207 214 225 217 221 229 241 249 253 252 255 260 263 269 276 283 283 282 280 279 278 281 282 280
145 117 212 127 213 279 329 339 355 335 241 225 258 235 234 267 241 236 269 279 254 227 244 268 271 271 268 269 273 275 275 276 281 280 284 275 261 261 267 269 264 255 250 247 242 232 225 217 215 208 193 199 188 173 167 186 184 188 185 181 193 203 207 209 215 216 220 231 239 242 242 254 256 258 261 270 276 282 280 279 280 283 284 282 282 283
144 133 172 287 182 323 9 36 2 250 276 300 311 4 152 88 89 70 284 271 263 243 233 244 255 261 269 274 275 274 280 297 298 272 263 269 261 252 257 258 256 251 246 239 232 230 217 210 207 201 200 180 170 181 186 189 182 187 197 178 197 205 209 205 211 223 224 227 233 234 240 242 249 255 263 272 280 279 281 283 283 285 286 284 280 275
137 101 108 278 160 219 205 171 243 309 319 312 34 45 123 341 183 135 290 294 287 245 220 241 258 269 273 275 277 286 308 319 295 285 263 252 257 245 238 246 247 244 239 240 223 227 214 207 203 204 190 175 180 177 187 182 182 188 187 192 200 197 202 209 215 222 224 221 226 228 229 242 251 253 259 273 276 279 280 287 289 284 281 281 281 281
135 156 223 137 295 132 305 320 332 360 326 280 266 327 298 271 154 150 105 287 286 283 250 240 261 276 287 295 300 304 340 316 302 299 306 276 240 245 243 243 248 248 243 241 226 220 205 199 192 178 177 170 177 186 167 177 177 182 192 196 178 198 209 210 221 218 220 214 221 222 221 237 247 251 265 264 266 274 282 284 285 281 280 278 281 282
36 74 128 148 273 27 18 229 253 224 250 264 333 281 290 301 126 100 45 264 276 256 289 233 270 285 295 303 304 322 329 309 301 302 314 318 270 242 251 247 241 240 237 227 212 209 199 194 182 171 167 168 188 185 160 165 165 180 204 200 190 191 210 218 214 210 215 214 208 220 219 222 231 246 255 258 266 272 279 281 281 281 280 270 267 274
42 2 32 320 249 202 138 215 255 212 260 274 277 250 265 9 272 336 317 316 310 325 324 297 295 303 307 309 311 309 300 294 297 301 307 311 297 259 243 256 249 244 243 232 226 212 198 175 155 158 176 189 196 156 165 155 159 193 206 201 172 209 217 216 206 207 205 200 204 205 205 218 234 244 244 261 271 271 271 275 277 277 278 277 274 274
147 248 128 219 181 207 187 271 321 287 273 295 315 277 267 286 45 348 320 302 320 320 322 324 315 312 311 310 314 306 295 279 285 291 299 303 304 292 268 254 255 243 236 223 221 190 184 183 187 188 188 184 165 155 161 159 175 204 198 194 206 225 219 201 184 192 196 204 200 209 220 223 225 239 249 249 262 266 271 268 272 277 276 277 275 271
265 123 310 77 212 202 197 197 238 256 256 200 277 194 230 348 327 318 294 303 311 313 313 318 313 312 314 310 310 299 297 300 296 297 299 301 299 296 290 273 260 257 251 238 211 191 199 193 197 192 186 173 166 162 160 169 190 203 194 201 226 227 161 159 182 178 192 206 216 216 217 219 217 241 249 255 256 265 269 266 265 266 269 270 270 273
197 137 212 199 204 87 70 321 322 331 281 130 161 335 192 357 292 290 303 305 307 305 313 313 315 313 320 315 313 310 309 309 309 308 306 305 305 302 299 288 260 252 245 228 224 210 195 202 205 200 193 170 157 159 166 169 194 199 194 217 231 171 144 175 165 189 198 207 213 211 213 218 232 249 250 253 253 255 265 270 270 268 264 265 272 272
200 231 269 261 179 270 148 165 267 287 280 179 160 307 261 232 279 297 307 306 312 317 320 319 318 322 321 317 314 314 313 312 312 314 314 313 312 310 306 294 269 257 252 236 225 211 198 213 210 208 194 173 161 159 166 172 192 194 205 228 191 139 167 162 191 191 203 206 215 195 197 222 238 248 250 253 257 253 259 268 267 269 264 264 264 272
216 187 179 295 238 181 257 220 262 283 295 250 198 252 265 277 288 294 295 293 306 314 323 320 319 320 321 318 314 313 314 315 313 314 315 314 313 312 311 308 298 271 256 244 231 211 206 213 212 207 202 179 174 172 170 173 184 196 216 206 134 183 166 178 177 197 210 218 216 207 214 227 241 248 254 256 245 251 256 262 263 270 270 261 264 261
357 172 217 134 260 258 254 245 271 300 296 294 255 236 266 291 301 301 300 307 311 315 321 316 314 314 317 320 318 317 316 317 317 316 317 317 315 313 313 311 305 286 263 254 241 215 214 213 215 206 208 187 180 178 172 182 176 203 215 148 164 164 167 166 195 210 222 218 222 224 217 233 250 251 253 254 242 238 243 251 264 268 276 275 268 265
274 360 109 260 262 22 288 313 306 291 302 304 301 298 286 252 262 295 315 316 315 318 317 316 317 316 315 316 315 314 314 319 319 316 317 317 316 316 317 314 309 299 276 252 241 212 206 202 211 213 210 207 184 183 177 185 192 200 164 172 158 164 166 186 195 214 219 224 224 225 216 233 235 252 252 245 243 239 246 251 251 255 269 269 270 271
337 227 333 243 274 255 276 297 288 284 280 284 284 297 318 324 326 322 313 305 305 307 309 310 312 310 317 317 320 319 316 317 317 316 316 316 315 315 315 314 311 308 289 258 249 205 207 202 214 214 210 215 200 183 177 186 191 174 170 163 165 153 165 189 181 202 218 221 207 224 222 225 248 253 254 255 249 259 264 256 246 254 259 259 259 262
247 14 282 278 289 273 272 263 272 293 267 255 277 294 302 310 314 314 313 314 316 314 313 311 309 309 316 316 318 319 316 314 315 315 314 314 316 317 317 314 312 306 302 286 250 207 212 213 217 218 212 219 207 189 178 192 181 157 183 178 158 169 171 176 179 206 218 212 209 230 224 231 233 239 249 259 260 245 234 245 267 261 257 250 234 238
11 324 273 22 316 309 295 309 326 330 323 314 312 315 315 313 313 309 312 316 319 317 319 323 324 325 322 319 318 315 312 312 315 319 318 317 315 315 315 316 315 312 307 290 260 225 224 222 220 220 218 223 207 187 184 183 175 167 179 160 163 160 176 183 178 195 211 210 222 224 225 232 234 234 235 240 253 271 283 263 266 258 252 264 276 279
18 317 332 327 300 300 297 295 299 283 280 282 300 309 309 311 315 316 316 316 318 321 324 325 323 323 322 320 322 319 315 314 314 317 317 318 316 315 313 313 314 312 308 305 277 244 226 228 223 226 226 224 205 193 189 182 164 165 166 173 174 175 175 176 182 197 200 198 209 215 218 222 234 234 234 237 233 233 256 300 306 304 299 286 283 289